Weather History for Santa Barbara, CA

Change the Weather History Date:

Thursday, October 14, 2010

  Actual Average Record
Temperature  
Mean Temperature 62 °F 62 °F  
Max Temperature 66 °F 72 °F 100 °F (1961)
Min Temperature 58 °F 52 °F 41 °F (1960)
Degree Days  
Heating Degree Days 3 4  
Month to date heating degree days 31 42  
Since 1 July heating degree days 311 137  
Cooling Degree Days 0 0  
Month to date cooling degree days 10 11  
Year to date cooling degree days 93 182  
Growing Degree Days 12 (Base 50)    
Moisture  
Dew Point 58 °F    
Average Humidity 88    
Maximum Humidity 97    
Minimum Humidity 78    
Precipitation  
Precipitation 0.00 in 0.02 in 1.95 in (2009)
Month to date precipitation 0.71 0.27  
Year to date precipitation 14.45 12.73  
Since 1 July precipitation 0.72 0.68  
Sea Level Pressure  
Sea Level Pressure 30.05 in    
Wind  
Wind Speed 5 mph (ESE)    
Max Wind Speed 12 mph    
Max Gust Speed -    
Visibility 4 miles    
Events      
T = Trace of Precipitation, MM = Missing Value Source: NWS Daily Summary

Daily Weather History Graph

Daily Weather History Graph

Search for Another Location

Airport:

Trip Planner

Search our weather history database for the weather conditions in past years. The results will help you decide how hot, cold, wet, or windy it might be!

Date:

Astronomy

Oct. 14, 2010 Rise Set
Actual Time 7:04 AM PDT 6:26 PM PDT
Civil Twilight 6:38 AM PDT 6:51 PM PDT
Nautical Twilight 6:09 AM PDT 7:20 PM PDT
Astronomical Twilight 5:40 AM PDT 7:49 PM PDT
Moon 1:57 PM PDT (10/14) No Moon Set
Length of Visible Light 12h 12m
Length of Day
11h 22m
Waxing Crescent, 49% of the Moon is Illuminated
Oct 14
Waxing Crescent
Oct 14
First Quarter
Oct 22
Full
Oct 30
Last Quarter
Nov 5
New

Hourly Weather History & Observations

Time (PDT) Temp. Dew Point Humidity Pressure Visibility Wind Dir Wind Speed Gust Speed Precip Events Conditions
12:07 AM 57.2 °F 57.2 °F 100% 30.02 in 1.2 mi ESE 6.9 mph - N/A   Overcast
12:25 AM 57.2 °F 57.2 °F 100% 30.03 in 2.0 mi ESE 8.1 mph - 0.01 in   Overcast
12:40 AM 57.2 °F 57.2 °F 100% 30.03 in 3.0 mi East 10.4 mph - 0.01 in   Overcast
12:53 AM 57.9 °F 57.9 °F 100% 30.03 in 3.0 mi ESE 9.2 mph - 0.01 in   Overcast
1:10 AM 57.2 °F 57.2 °F 100% 30.04 in 5.0 mi East 10.4 mph - N/A   Overcast
1:53 AM 57.9 °F 57.9 °F 100% 30.05 in 7.0 mi ESE 9.2 mph - N/A   Overcast
2:53 AM 59.0 °F 57.9 °F 96% 30.04 in 5.0 mi ESE 6.9 mph - N/A   Overcast
3:53 AM 59.0 °F 57.2 °F 94% 30.03 in 5.0 mi East 4.6 mph - N/A   Overcast
4:53 AM 59.0 °F 57.9 °F 96% 30.04 in 5.0 mi East 4.6 mph - N/A   Overcast
5:53 AM 59.0 °F 57.9 °F 96% 30.04 in 7.0 mi East 4.6 mph - N/A   Overcast
6:53 AM 59.0 °F 57.9 °F 96% 30.05 in 5.0 mi ENE 4.6 mph - N/A   Overcast
7:32 AM 59.0 °F 57.2 °F 94% 30.06 in 2.5 mi ENE 5.8 mph - N/A   Overcast
7:50 AM 59.0 °F 59.0 °F 100% 30.07 in 1.8 mi ENE 5.8 mph - N/A   Overcast
7:53 AM 59.0 °F 57.9 °F 96% 30.07 in 2.0 mi East 6.9 mph - N/A   Overcast
8:53 AM 60.1 °F 59.0 °F 96% 30.09 in 2.0 mi ENE 6.9 mph - N/A   Overcast
9:53 AM 61.0 °F 59.0 °F 93% 30.10 in 2.0 mi East 6.9 mph - N/A   Overcast
10:53 AM 62.1 °F 59.0 °F 90% 30.08 in 2.0 mi East 5.8 mph - N/A   Overcast
11:53 AM 63.0 °F 59.0 °F 87% 30.08 in 6.0 mi Calm Calm - N/A   Overcast
12:53 PM 66.0 °F 59.0 °F 78% 30.06 in 6.0 mi South 5.8 mph - N/A   Haze
1:53 PM 64.0 °F 59.0 °F 84% 30.05 in 6.0 mi SSE 6.9 mph - N/A   Haze
2:53 PM 63.0 °F 59.0 °F 87% 30.04 in 6.0 mi South 4.6 mph - N/A   Haze
3:53 PM 62.1 °F 59.0 °F 90% 30.03 in 6.0 mi West 6.9 mph - N/A   Haze
4:53 PM 61.0 °F 59.0 °F 93% 30.01 in 5.0 mi SW 4.6 mph - N/A   Overcast
5:53 PM 61.0 °F 59.0 °F 93% 30.01 in 4.0 mi West 5.8 mph - N/A   Overcast
6:53 PM 61.0 °F 59.0 °F 93% 30.01 in 5.0 mi WSW 3.5 mph - N/A   Overcast
7:53 PM 60.1 °F 59.0 °F 96% 30.02 in 6.0 mi West 3.5 mph - N/A   Overcast
8:53 PM 60.1 °F 59.0 °F 96% 30.04 in 4.0 mi Calm Calm - N/A   Overcast
9:53 PM 60.1 °F 59.0 °F 96% 30.05 in 5.0 mi Calm Calm - N/A   Overcast
10:53 PM 61.0 °F 59.0 °F 93% 30.05 in 4.0 mi ESE 3.5 mph - N/A   Overcast
11:53 PM 61.0 °F 59.0 °F 93% 30.05 in 4.0 mi SE 4.6 mph - N/A   Overcast